This is the latest recevied weather packets stored in our database for station/object VK4RM-13. If no packets are shown the sender has not sent any weather packets the latest 10 day(s).
| Time | Temp. | Humidity | Pressure | Rain* | Wind** | Luminosity | Snow |
|---|---|---|---|---|---|---|---|
| 1777953399 | 28.89° C | 47% | 993.4 hPa | 0 mm | - | - | - |
| 1777952799 | 28.89° C | 48% | 993.5 hPa | 0 mm | - | - | - |
| 1777952199 | 28.89° C | 51% | 993.5 hPa | 0 mm | - | - | - |
| 1777951599 | 29.44° C | 51% | 993.4 hPa | 0 mm | - | - | - |
| 1777950999 | 28.89° C | 53% | 993.5 hPa | 0 mm | - | - | - |
| 1777950399 | 28.89° C | 52% | 993.7 hPa | 0 mm | - | - | - |
| 1777949799 | 28.89° C | 52% | 993.9 hPa | 0 mm | - | - | - |
| 1777949199 | 28.89° C | 54% | 994.1 hPa | 0 mm | - | - | - |
| 1777948599 | 28.33° C | 57% | 994.2 hPa | 0 mm | - | - | - |
| 1777947999 | 27.78° C | 54% | 994.4 hPa | 0 mm | - | - | - |
| 1777947399 | 28.33° C | 56% | 994.7 hPa | 0 mm | - | - | - |
| 1777946799 | 28.33° C | 55% | 994.8 hPa | 0 mm | - | - | - |
| 1777946199 | 27.78° C | 60% | 994.8 hPa | 0 mm | - | - | - |
| 1777945599 | 27.22° C | 59% | 994.9 hPa | 0 mm | - | - | - |
| 1777944999 | 27.78° C | 58% | 995.1 hPa | 0 mm | - | - | - |
| 1777944399 | 26.67° C | 61% | 995.2 hPa | 0 mm | - | - | - |
| 1777943799 | 26.67° C | 65% | 995.4 hPa | 0 mm | - | - | - |
| 1777943201 | 26.67° C | 66% | 995.2 hPa | 0 mm | - | - | - |
| 1777942599 | 26.67° C | 64% | 995.6 hPa | 0 mm | - | - | - |
| 1777941999 | 26.11° C | 66% | 996 hPa | 0 mm | - | - | - |
| 1777941399 | 26.11° C | 66% | 996 hPa | 0 mm | - | - | - |
| 1777940799 | 26.11° C | 63% | 995.8 hPa | 0 mm | - | - | - |
| 1777940199 | 26.11° C | 64% | 996.1 hPa | 0 mm | - | - | - |
| 1777939599 | 26.11° C | 67% | 996.3 hPa | 0 mm | - | - | - |
| 1777938999 | 25.56° C | 70% | 996.1 hPa | 0 mm | - | - | - |
* Rain latest hour (hover to see other rain measurements)
** Current wind speed in m/s (hover to see current wind gust speed)